STARLINK-33895

Last updated on Fri Jun 13 2025 00:02:05 GMT+0000 (Coordinated Universal Time)

1 63934U 25098J 25162.83335648 -.00033428 00000+0 -76283-3 0 9995 2 63934 69.9995 242.5967 0003278 270.0381 333.4810 15.42726988 5807
UTC large
Height (km)
Speed (km/s)
/
Latitude / Longitude
Inclination (degrees)
Orbital Period (minutes)
Azimuth
Elevation
Range (km)
Doppler Factor

Next 0 passes for location: London (51.5072 / 0.1276)

Sorry there are no passes over London.